| time (UTC) | temp F | wind direction | speed MPH | gust MPH | rain 1hr in | rain 24hr in | rain mn in | humidity % | barometer mb |
| 20260502234614 | 67 | 317 | 0.0 | 0.0 | 0.00 | 0.00 | 0.00 | 42 | 1016.5 |
| 20260502233109 | 67 | 5 | 0.0 | 0.0 | 0.00 | 0.00 | 0.00 | 40 | 1016.4 |
| 20260502231608 | 68 | 346 | 0.0 | 0.0 | 0.00 | 0.00 | 0.00 | 39 | 1016.4 |
| 20260502230056 | 69 | 250 | 0.0 | 7.0 | 0.00 | 0.00 | 0.00 | 41 | 1016.4 |
| 20260502224555 | 69 | 151 | 0.0 | 0.0 | 0.00 | 0.00 | 0.00 | 39 | 1016.4 |
| 20260502223055 | 69 | 38 | 0.0 | 0.0 | 0.00 | 0.00 | 0.00 | 39 | 1016.2 |
| 20260502221602 | 69 | 252 | 0.0 | 0.0 | 0.00 | 0.00 | 0.00 | 39 | 1016.3 |
| 20260502220056 | 69 | 309 | 0.0 | 1.0 | 0.00 | 0.00 | 0.00 | 40 | 1016.2 |
| 20260502214604 | 69 | 172 | 0.0 | 2.0 | 0.00 | 0.00 | 0.00 | 40 | 1016.3 |
| 20260502213054 | 69 | 263 | 0.0 | 0.0 | 0.00 | 0.00 | 0.00 | 41 | 1016.3 |
| 20260502211550 | 70 | 256 | 0.0 | 4.0 | 0.00 | 0.00 | 0.00 | 40 | 1016.2 |
| 20260502210050 | 71 | 121 | 0.0 | 1.0 | 0.00 | 0.00 | 0.00 | 36 | 1016.3 |
| 20260502204552 | 71 | 213 | 0.0 | 3.0 | 0.00 | 0.00 | 0.00 | 38 | 1016.3 |
| 20260502203056 | 69 | 217 | 0.0 | 3.0 | 0.00 | 0.00 | 0.00 | 40 | 1016.4 |
| 20260502201551 | 69 | 296 | 0.0 | 0.0 | 0.00 | 0.00 | 0.00 | 41 | 1016.7 |
| 20260502200048 | 71 | 287 | 0.0 | 2.0 | 0.00 | 0.00 | 0.00 | 38 | 1016.8 |
| 20260502194547 | 72 | 258 | 0.0 | 1.0 | 0.00 | 0.00 | 0.00 | 40 | 1016.7 |
| 20260502193046 | 70 | 233 | 0.0 | 4.0 | 0.00 | 0.00 | 0.00 | 39 | 1016.9 |
| 20260502191546 | 70 | 267 | 0.0 | 2.0 | 0.00 | 0.00 | 0.00 | 44 | 1016.9 |
| 20260502190049 | 71 | 269 | 0.0 | 3.0 | 0.00 | 0.00 | 0.00 | 38 | 1017.0 |
| 20260502184543 | 70 | 164 | 0.0 | 2.0 | 0.00 | 0.00 | 0.00 | 46 | 1017.1 |
| 20260502183043 | 70 | 191 | 0.0 | 1.0 | 0.00 | 0.00 | 0.00 | 41 | 1017.3 |
| 20260502181542 | 72 | 178 | 0.0 | 2.0 | 0.00 | 0.00 | 0.00 | 39 | 1017.4 |
| 20260502163035 | 69 | 298 | 0.0 | 5.0 | 0.00 | 0.00 | 0.00 | 44 | 1018.4 |
| 20260502161530 | 69 | 177 | 0.0 | 7.0 | 0.00 | 0.00 | 0.00 | 45 | 1018.5 |
| 20260502151523 | 67 | 175 | 0.0 | 0.0 | 0.00 | 0.00 | 0.00 | 44 | 1018.6 |
| 20260502123045 | 48 | 37 | 0.0 | 0.0 | 0.00 | 0.00 | 0.00 | 90 | 1017.9 |
| 20260502121548 | 46 | 37 | 0.0 | 0.0 | 0.00 | 0.00 | 0.00 | 92 | 1017.7 |
| 20260502114539 | 44 | 37 | 0.0 | 0.0 | 0.00 | 0.00 | 0.00 | 93 | 1017.4 |
| 20260502113038 | 43 | 37 | 0.0 | 0.0 | 0.00 | 0.00 | 0.00 | 92 | 1017.2 |
| 20260502111536 | 43 | 36 | 0.0 | 0.0 | 0.00 | 0.00 | 0.00 | 91 | 1017.2 |
| 20260502110035 | 43 | 37 | 0.0 | 0.0 | 0.00 | 0.00 | 0.00 | 91 | 1017.0 |
| 20260502104543 | 44 | 36 | 0.0 | 0.0 | 0.00 | 0.00 | 0.00 | 91 | 1017.0 |
| 20260502103032 | 44 | 36 | 0.0 | 0.0 | 0.00 | 0.00 | 0.00 | 91 | 1016.7 |
| 20260502101531 | 44 | 36 | 0.0 | 0.0 | 0.00 | 0.00 | 0.00 | 90 | 1016.7 |
| 20260502091525 | 46 | 36 | 0.0 | 0.0 | 0.00 | 0.00 | 0.00 | 89 | 1016.4 |
| 20260502071505 | 50 | 36 | 0.0 | 0.0 | 0.00 | 0.00 | 0.00 | 80 | 1016.6 |
| 20260502070006 | 51 | 36 | 0.0 | 0.0 | 0.00 | 0.00 | 0.00 | 80 | 1016.6 |
| 20260502064609 | 52 | 36 | 0.0 | 0.0 | 0.00 | 0.00 | 0.00 | 79 | 1016.7 |
| 20260502063059 | 52 | 36 | 0.0 | 0.0 | 0.00 | 0.00 | 0.00 | 78 | 1017.0 |
| 20260502061558 | 52 | 36 | 0.0 | 0.0 | 0.00 | 0.00 | 0.00 | 76 | 1017.1 |
| 20260502060101 | 53 | 36 | 0.0 | 0.0 | 0.00 | 0.00 | 0.00 | 75 | 1017.1 |
| 20260502054557 | 53 | 36 | 0.0 | 0.0 | 0.00 | 0.00 | 0.00 | 72 | 1017.1 |
| 20260502053055 | 52 | 36 | 0.0 | 0.0 | 0.00 | 0.00 | 0.00 | 75 | 1017.0 |
| 20260502051627 | 52 | 36 | 0.0 | 0.0 | 0.00 | 0.00 | 0.00 | 78 | 1016.9 |
| 20260502050050 | 52 | 36 | 0.0 | 0.0 | 0.00 | 0.00 | 0.00 | 77 | 1016.9 |
| 20260502044554 | 52 | 36 | 0.0 | 0.0 | 0.00 | 0.00 | 0.00 | 77 | 1016.8 |
| 20260502043050 | 52 | 36 | 0.0 | 0.0 | 0.00 | 0.00 | 0.00 | 76 | 1016.6 |
| 20260502041549 | 52 | 36 | 0.0 | 0.0 | 0.00 | 0.00 | 0.00 | 76 | 1016.4 |
| 20260502040047 | 53 | 36 | 0.0 | 0.0 | 0.00 | 0.00 | 0.00 | 76 | 1016.1 |
| 20260502034548 | 53 | 36 | 0.0 | 0.0 | 0.00 | 0.00 | 0.00 | 77 | 1016.1 |
| 20260502033052 | 54 | 36 | 0.0 | 0.0 | 0.00 | 0.00 | 0.00 | 74 | 1016.2 |
| 20260502031605 | 54 | 36 | 0.0 | 0.0 | 0.00 | 0.00 | 0.00 | 75 | 1016.2 |
| 20260502030046 | 54 | 36 | 0.0 | 0.0 | 0.00 | 0.00 | 0.00 | 75 | 1016.5 |
| 20260502024552 | 55 | 36 | 0.0 | 0.0 | 0.00 | 0.00 | 0.00 | 73 | 1016.8 |
| 20260502023045 | 55 | 36 | 0.0 | 0.0 | 0.00 | 0.00 | 0.00 | 70 | 1017.1 |
| 20260502021544 | 56 | 36 | 0.0 | 0.0 | 0.00 | 0.00 | 0.00 | 70 | 1017.2 |
| 20260502020048 | 57 | 36 | 0.0 | 0.0 | 0.00 | 0.00 | 0.00 | 68 | 1016.9 |
| 20260502014543 | 57 | 36 | 0.0 | 0.0 | 0.00 | 0.00 | 0.00 | 62 | 1016.9 |
| 20260502013042 | 58 | 36 | 0.0 | 0.0 | 0.00 | 0.00 | 0.00 | 60 | 1016.7 |
| 20260502011548 | 58 | 36 | 0.0 | 0.0 | 0.00 | 0.00 | 0.00 | 59 | 1016.1 |
| 20260502010042 | 59 | 36 | 0.0 | 0.0 | 0.00 | 0.00 | 0.00 | 57 | 1015.7 |
| 20260502004542 | 60 | 36 | 0.0 | 0.0 | 0.00 | 0.00 | 0.00 | 54 | 1015.8 |
| 20260502003040 | 61 | 36 | 0.0 | 0.0 | 0.00 | 0.00 | 0.00 | 52 | 1015.7 |
| 20260502001541 | 62 | 36 | 0.0 | 0.0 | 0.00 | 0.00 | 0.00 | 50 | 1015.3 |
| 20260502000039 | 63 | 36 | 0.0 | 0.0 | 0.00 | 0.00 | 0.00 | 47 | 1015.2 |